Content
SEND FEEDBACK

Daily
Averages
Monthly
Summary
Switzerland

GENEVA, SWITZERLAND


Home > Europe > Switzerland
Elevation: 1364 feet     Latitude: 46 15N     Longitude: 006 08E

WEATHER
 
SELECT A DAY
Number of Records: 313,434;   Date Range: 7/1/96 - 10/24/14
 
SHARE

PRINT THIS DATA

[ ← Previous Day ]
WEATHER ALMANAC - JANUARY 1, 2013
[ Next Day → ]
[ °C ]   °F
Weather ElementAverageHighLow
Temperature40.8 °F44.6 °F (5:50 am)30.2 °F (12:20 am)
Dewpoint35.5 °F41 °F (1:20 pm)28 °F (1:00 am)
Humidity80.3 %100 % (10:20 pm)45 % (7:00 am)
Barometer29.96 in30.06 in (11:00 pm)29.89 in (5:50 am)
Wind Speed7.3 mph16.1 mph (7:00 am)
Weather ElementAverage
Visibility7.3 mi
Wind DirectionS (180 °)

Weather ElementTotal
Precipitation---
Heating Degree Days27.6 (Base 65)
Averaged from 66 records on January 1, 2013
WEATHER CONDITIONS BREAKOUT
WIND DIRECTION BREAKOUT
WEATHER BY HOUR - JANUARY 1, 2013
[ °C ]   °F
Local TimeTemperatureDewpointHumidityBarometerVisibilityWind DirectionWind SpeedGust SpeedPrecipitationEventsConditions
12:20 AM30.2 °F28.4 °F93 %29.95 inVariable1.2 mphClear
12:50 AM30.2 °F28.4 °F93 %29.95 inVariable2.3 mphClear
1:00 AM32.0 °F28.0 °F80 %30.01 in31.0 miSW (230°)1.2 mphScattered Clouds
1:20 AM30.2 °F28.4 °F93 %29.95 inVariable1.2 mphClear
1:50 AM30.2 °F28.4 °F93 %29.92 inVariable1.2 mphClear
2:00 AM32.0 °F28.0 °F81 %29.99 inSSE (160°)1.2 mph
2:50 AM35.6 °F32.0 °F87 %29.92 inSouth (180°)3.5 mphClear
3:00 AM35.0 °F31.0 °F81 %29.98 inSSW (210°)5.8 mph
3:20 AM37.4 °F32.0 °F81 %29.92 inWSW (250°)4.6 mphClear
3:50 AM35.6 °F32.0 °F87 %29.92 inWSW (240°)8.1 mphClear
4:20 AM39.2 °F32.0 °F75 %29.92 inSW (230°)10.4 mphClear
4:50 AM42.8 °F32.0 °F66 %29.92 inSW (220°)12.7 mphClear
5:00 AM42.0 °F31.0 °F54 %29.95 inSW (220°)15.0 mph
5:20 AM42.8 °F32.0 °F66 %29.92 inSW (220°)12.7 mphClear
5:50 AM44.6 °F32.0 °F61 %29.89 in6.2 miSW (220°)15.0 mphMostly Cloudy
6:00 AM44.0 °F30.0 °F46 %29.94 inSW (220°)15.0 mph
6:20 AM44.6 °F32.0 °F61 %29.92 in6.2 miSSW (210°)15.0 mphMostly Cloudy
6:50 AM44.6 °F32.0 °F61 %29.92 in6.2 miSW (220°)15.0 mphMostly Cloudy
7:00 AM44.0 °F30.0 °F45 %29.94 in31.0 miSW (220°)16.1 mphOvercast
7:20 AM44.6 °F30.2 °F57 %29.92 in6.2 miSW (230°)15.0 mphMostly Cloudy
7:50 AM42.8 °F32.0 °F66 %29.92 in6.2 miSW (230°)11.5 mphMostly Cloudy
8:00 AM44.0 °F30.0 °F45 %29.94 inSW (230°)11.5 mph
8:20 AM42.8 °F30.2 °F61 %29.92 in6.2 miSW (230°)11.5 mphMostly Cloudy
8:50 AM42.8 °F32.0 °F66 %29.92 in6.2 miWSW (240°)12.7 mphMostly Cloudy
9:00 AM43.0 °F30.0 °F49 %29.95 inWSW (240°)11.5 mph
9:20 AM42.8 °F32.0 °F66 %29.92 in6.2 miWSW (240°)11.5 mphMostly Cloudy
9:50 AM44.6 °F32.0 °F61 %29.92 in6.2 miWest (260°)9.2 mphMostly Cloudy
10:20 AM44.6 °F35.6 °F71 %29.92 in6.2 miWSW (240°)9.2 mphRainLight Rain
10:50 AM44.6 °F35.6 °F71 %29.95 in6.2 miWest (260°)9.2 mphMostly Cloudy
11:00 AM44.0 °F35.0 °F61 %29.97 inWest (260°)9.2 mph
11:20 AM44.6 °F37.4 °F76 %29.95 in6.2 miWSW (240°)8.1 mphRainLight Rain
11:50 AM42.8 °F39.2 °F87 %29.92 in5.6 miWSW (240°)9.2 mphRainLight Rain
12:00 PM43.0 °F38.0 °F77 %29.97 inSW (230°)9.2 mph
12:20 PM42.8 °F39.2 °F87 %29.92 in5.6 miWSW (240°)8.1 mphRainLight Rain
12:50 PM42.8 °F39.2 °F87 %29.92 in5.6 miSW (230°)6.9 mphRainLight Rain
1:00 PM43.0 °F40.0 °F84 %29.97 in6.0 miSW (220°)8.1 mphRainLight Rain
1:20 PM42.8 °F41.0 °F93 %29.92 in5.6 miSSW (200°)10.4 mphRainLight Rain
1:50 PM42.8 °F39.2 °F87 %29.92 in5.0 miSSW (200°)10.4 mphRainLight Rain
2:00 PM42.0 °F39.0 °F83 %29.97 inSSW (200°)11.5 mph
2:20 PM42.8 °F39.2 °F87 %29.92 in5.6 miSSW (200°)11.5 mphRainLight Rain
2:50 PM42.8 °F39.2 °F87 %29.95 in5.6 miSSW (200°)9.2 mphRainLight Rain
3:00 PM43.0 °F40.0 °F84 %29.98 inSSW (200°)10.4 mph
3:20 PM42.8 °F39.2 °F87 %29.95 in6.2 miSSW (200°)10.4 mphRainLight Rain
3:50 PM42.8 °F39.2 °F87 %29.95 in6.2 miSSW (200°)10.4 mphRainLight Rain
4:20 PM42.8 °F39.2 °F87 %29.95 in6.2 miSouth (190°)8.1 mphRainLight Rain
4:50 PM41.0 °F39.2 °F93 %29.95 in6.2 miSouth (190°)6.9 mphRainLight Rain
5:00 PM42.0 °F39.0 °F85 %29.99 inSSW (200°)5.8 mph
5:20 PM41.0 °F39.2 °F93 %29.95 in6.2 miSW (230°)4.6 mphRainLight Rain
5:50 PM41.0 °F39.2 °F93 %29.95 in6.2 miSW (230°)4.6 mphMostly Cloudy
6:00 PM42.0 °F38.0 °F83 %30.00 inSW (230°)5.8 mph
6:20 PM41.0 °F39.2 °F93 %29.95 in6.2 miSW (220°)4.6 mphMostly Cloudy
6:50 PM41.0 °F39.2 °F93 %29.98 in6.2 miWSW (250°)3.5 mphMostly Cloudy
7:00 PM41.0 °F39.0 °F88 %30.01 inSW (230°)5.8 mph
7:20 PM41.0 °F39.2 °F93 %29.98 in6.2 miVariable2.3 mphMostly Cloudy
7:50 PM41.0 °F39.2 °F93 %29.98 in6.2 miCalmMostly Cloudy
8:00 PM40.0 °F39.0 °F95 %30.02 inNNW (340°)2.3 mph
8:20 PM41.0 °F39.2 °F93 %29.98 in6.2 miVariable1.2 mphMostly Cloudy
8:50 PM41.0 °F39.2 °F93 %29.98 in6.2 miCalmRainLight Rain
9:00 PM41.0 °F39.0 °F88 %30.04 inSSW (200°)2.3 mph
9:20 PM41.0 °F39.2 °F93 %30.01 in6.2 miVariable2.3 mphRainLight Rain
9:50 PM41.0 °F39.2 °F93 %30.01 in6.2 miWest (260°)3.5 mphRainLight Rain Showers
10:20 PM39.2 °F39.2 °F100 %30.01 in6.2 miVariable2.3 mphRainLight Rain Showers
10:50 PM39.2 °F39.2 °F100 %30.01 in6.2 miVariable1.2 mphRainLight Rain Showers
11:00 PM40.0 °F39.0 °F93 %30.06 inEast (100°)2.3 mph
11:20 PM39.2 °F37.4 °F93 %30.01 in6.2 miEast (100°)2.3 mphMostly Cloudy
11:50 PM39.2 °F37.4 °F93 %30.04 in6.2 miCalmMostly Cloudy
Hourly data recorded from LSGG, located miles away from Geneva, Switzerland







STORIES FROM OUR PARTNERS